Temp
5 5 5 5 5 5 5 5 4 4 4 4 4 4 4 4 4 4 4 4 4 3 3 3 3 3 3 3 3 3 3 3 2 2 2 2 2 2 2 2 2 2 2 1 2 2 1 1 0 -0 -0 -1 -1 -2 -2 -2 -2 -2 -2 -2 -2 -3 -3 -3 -3 -3 -3 -3 -3 -3 -3 -3 -3 -3 -3 -3 -3 -3 -3 -2 -2 -2 -2 -2 -2
5 5 5 5 5 5 5 5 4 4 4 4 4 4 4 4 4 4 4 4 4 4 3 3 3 3 3 3 3 3 3 3 2 2 2 2 2 2 2 2 2 2 2 1 1 2 2 1 1 0 -0 -0 -1 -1 -2 -2 -2 -2 -2 -2 -2 -3 -3 -3 -3 -3 -3 -3 -3 -3 -3 -3 -3 -3 -3 -3 -3 -3 -3 -3 -2 -2 -2 -2 -2
5 5 5 5 5 5 5 5 4 4 4 4 4 4 4 4 4 4 4 4 4 3 3 3 3 3 3 3 2 2 2 2 2 2 2 2 2 2 2 2 1 2 2 2 1 1 1 1 1 1 0 -0 -1 -1 -1 -2 -3 -3 -2 -2 -2 -3 -3 -3 -3 -3 -3 -3 -3 -3 -3 -3 -3 -3 -3 -3 -3 -3 -3 -3 -2 -2 -2 -2 -2
5 5 5 5 5 5 5 5 4 4 4 4 4 4 4 4 4 4 4 4 4 3 3 3 3 3 3 2 2 2 2 2 2 2 2 2 2 2 1 1 1 1 1 1 1 1 1 1 1 1 0 0 -1 -1 -1 -2 -2 -3 -3 -2 -2 -3 -3 -3 -3 -3 -3 -3 -3 -3 -3 -3 -3 -3 -3 -3 -3 -3 -3 -3 -3 -2 -2 -2 -2
5 5 5 5 5 5 5 5 4 4 4 4 4 4 4 4 4 4 4 3 3 3 3 3 3 3 2 2 2 2 2 2 2 2 2 2 2 2 1 1 1 1 1 1 1 1 1 1 1 1 1 0 -0 -1 -1 -2 -2 -2 -3 -3 -3 -3 -3 -3 -3 -3 -3 -3 -3 -3 -3 -3 -3 -3 -3 -3 -3 -3 -3 -3 -3 -3 -2 -2 -2
5 5 5 5 5 5 5 5 4 4 4 4 4 4 4 4 4 3 3 3 3 3 3 3 3 3 3 2 2 2 2 2 2 2 2 2 2 1 1 1 1 1 1 1 1 1 1 1 0 0 0 0 0 -0 -1 -2 -2 -2 -3 -3 -3 -3 -3 -3 -3 -3 -3 -3 -3 -3 -3 -3 -3 -3 -3 -3 -3 -3 -3 -3 -3 -3 -3 -3 -3
5 5 5 5 5 5 5 4 4 4 4 4 4 4 4 4 4 3 3 3 3 3 3 3 3 3 3 2 2 2 2 2 2 2 2 2 1 1 1 1 1 1 1 0 0 0 0 0 0 -0 0 0 -0 -0 -1 -2 -2 -2 -2 -3 -3 -3 -3 -3 -3 -3 -3 -3 -3 -3 -3 -3 -3 -3 -3 -3 -3 -3 -3 -3 -3 -3 -3 -3 -3
5 5 5 5 5 5 5 4 4 4 4 4 4 4 4 4 3 3 3 3 3 3 3 3 3 3 3 3 2 2 2 2 2 2 2 1 1 1 1 1 1 1 0 0 0 -0 -0 -0 0 -0 -0 -0 -0 -1 -1 -2 -2 -2 -2 -3 -3 -3 -3 -3 -3 -3 -3 -3 -3 -3 -3 -3 -3 -3 -3 -3 -3 -3 -3 -3 -3 -3 -3 -3 -3
5 5 5 5 5 5 5 4 4 4 4 4 4 4 4 4 3 3 3 3 3 3 3 3 3 3 3 3 2 2 2 2 2 2 2 1 1 1 1 1 1 0 0 0 0 -0 -0 -0 -0 -0 -0 -0 -1 -1 -1 -2 -3 -3 -2 -3 -3 -3 -3 -3 -4 -3 -3 -3 -3 -3 -3 -3 -3 -3 -3 -3 -3 -3 -3 -3 -3 -3 -3 -3 -3
5 5 5 5 5 5 5 4 4 4 4 4 4 4 4 4 3 3 3 3 3 3 3 3 3 3 3 3 2 2 2 2 2 2 2 1 1 1 1 1 0 0 0 0 -0 -0 -0 -0 -0 -1 -1 -1 -1 -1 -1 -2 -2 -3 -3 -3 -3 -3 -3 -3 -4 -3 -3 -3 -3 -3 -3 -3 -3 -3 -3 -3 -3 -3 -3 -3 -3 -3 -3 -3 -3
5 5 5 5 5 5 5 4 4 4 4 4 4 4 4 4 3 3 3 3 3 3 3 3 3 3 3 3 2 2 2 2 2 2 2 1 1 1 1 1 1 1 0 0 -0 -0 -0 -0 -1 -1 -1 -1 -1 -1 -2 -2 -2 -3 -3 -3 -4 -4 -4 -4 -4 -4 -4 -4 -3 -3 -3 -3 -3 -3 -3 -3 -3 -3 -3 -3 -3 -3 -3 -3 -3
5 5 5 5 5 5 5 4 4 4 4 4 4 4 4 4 3 3 3 3 3 3 3 3 3 3 3 3 2 2 2 2 2 2 2 1 1 1 1 1 1 1 0 0 0 -0 -0 -0 -1 -1 -1 -1 -1 -1 -2 -2 -3 -4 -4 -4 -4 -4 -4 -4 -4 -4 -4 -4 -4 -4 -4 -3 -3 -3 -3 -3 -3 -3 -3 -3 -3 -3 -3 -3 -3
5 5 5 5 5 5 5 4 4 4 4 4 4 4 4 4 3 3 3 3 3 3 3 3 3 3 3 3 2 2 2 2 2 2 1 1 1 1 1 0 0 1 0 0 0 -0 -0 -1 -1 -1 -1 -1 -1 -1 -2 -2 -3 -5 -5 -5 -5 -5 -5 -4 -4 -4 -4 -4 -4 -4 -4 -4 -3 -3 -3 -3 -3 -3 -3 -3 -3 -3 -3 -4 -3
5 5 4 4 5 5 5 5 4 4 4 4 4 4 4 4 4 3 3 3 3 3 3 3 3 3 3 3 2 2 2 2 2 1 1 1 1 0 0 0 0 0 0 -0 -0 -0 -0 -1 -1 -1 -1 -1 -1 -2 -2 -2 -4 -5 -5 -5 -5 -6 -5 -5 -5 -4 -4 -4 -4 -4 -4 -4 -3 -3 -3 -3 -3 -3 -3 -3 -3 -3 -3 -3 -3
5 5 4 4 4 4 5 5 4 4 4 4 4 4 4 4 4 3 3 3 3 3 3 3 3 3 3 3 2 2 2 2 2 1 1 1 1 0 0 0 0 0 -0 -0 -0 -1 -1 -1 -1 -1 -1 -1 -1 -2 -2 -3 -3 -5 -5 -5 -5 -6 -6 -5 -5 -5 -5 -5 -5 -5 -5 -4 -4 -4 -3 -3 -4 -4 -4 -4 -3 -3 -3 -3 -3
5 5 4 4 4 4 4 4 4 4 4 4 4 4 4 4 4 3 3 3 3 3 3 3 3 3 3 3 2 2 2 2 2 1 1 1 1 0 0 0 0 -0 -0 -1 -1 -1 -1 -1 -1 -1 -1 -1 -2 -2 -2 -3 -3 -4 -5 -5 -5 -6 -6 -6 -6 -6 -6 -5 -5 -5 -5 -5 -5 -4 -4 -4 -4 -4 -4 -4 -4 -3 -4 -4 -3
5 5 4 4 4 4 4 4 4 4 4 4 4 4 4 4 4 3 3 3 3 3 3 3 3 3 3 3 2 2 2 2 2 1 1 1 1 0 0 0 -0 -0 -0 -1 -1 -1 -1 -1 -1 -2 -2 -2 -2 -2 -2 -3 -3 -4 -4 -5 -5 -6 -6 -6 -6 -6 -6 -5 -5 -5 -5 -5 -5 -5 -4 -4 -4 -4 -4 -4 -4 -4 -4 -4 -4
5 5 4 4 4 4 4 4 4 4 4 4 4 4 4 4 4 3 3 3 3 3 3 3 3 3 3 3 2 2 2 2 2 1 1 0 0 0 0 -0 -0 -0 -0 -1 -1 -1 -1 -1 -2 -2 -2 -2 -2 -2 -2 -3 -3 -4 -4 -5 -5 -6 -6 -6 -6 -6 -6 -6 -5 -5 -5 -5 -5 -5 -4 -4 -4 -4 -4 -4 -4 -4 -4 -4 -4
5 5 4 4 4 4 4 4 4 4 4 4 4 4 4 4 4 3 3 3 3 3 3 3 3 3 3 2 2 2 2 2 1 1 1 0 0 0 0 -0 -0 -1 -1 -1 -1 -1 -1 -1 -2 -2 -2 -2 -2 -2 -2 -3 -3 -4 -4 -5 -5 -6 -6 -6 -6 -6 -6 -6 -6 -5 -4 -5 -5 -5 -5 -5 -4 -4 -4 -4 -4 -4 -4 -4 -4
4 4 4 4 4 4 4 4 4 4 4 4 4 4 4 4 4 3 3 3 3 3 3 3 3 3 3 2 2 2 2 2 1 1 1 0 0 0 0 -0 -0 -1 -1 -1 -1 -1 -1 -2 -2 -2 -3 -3 -3 -3 -3 -3 -3 -4 -4 -5 -5 -5 -6 -6 -6 -6 -7 -7 -6 -5 -5 -5 -5 -5 -5 -5 -5 -4 -4 -4 -4 -4 -4 -4 -4
5 4 4 4 4 4 4 4 4 4 4 4 4 4 4 3 3 3 3 3 3 3 3 3 2 2 2 2 2 2 2 2 1 1 1 0 0 0 -0 -0 -1 -1 -1 -1 -1 -1 -2 -2 -2 -3 -3 -3 -3 -3 -3 -3 -3 -3 -4 -4 -5 -5 -6 -6 -6 -6 -7 -7 -6 -6 -6 -5 -5 -5 -5 -5 -4 -4 -4 -4 -4 -4 -4 -4 -4
5 5 5 5 4 4 4 4 3 4 4 4 4 4 4 3 3 3 3 3 3 3 3 2 2 2 2 2 2 2 2 2 1 1 1 0 -0 -0 -0 -0 -1 -1 -1 -1 -1 -2 -2 -2 -2 -3 -3 -3 -3 -3 -3 -3 -3 -3 -4 -4 -5 -5 -6 -6 -6 -6 -6 -6 -6 -6 -6 -5 -5 -5 -5 -5 -4 -4 -4 -4 -4 -4 -4 -4 -4
5 5 5 5 5 5 4 3 3 4 4 3 4 4 4 3 3 3 3 3 3 3 3 2 2 2 2 2 2 2 2 1 1 1 1 0 -0 -0 -0 -1 -1 -1 -1 -1 -1 -2 -2 -2 -3 -3 -3 -4 -4 -4 -4 -3 -3 -4 -4 -4 -5 -5 -6 -6 -6 -6 -6 -6 -6 -6 -6 -5 -5 -5 -5 -5 -5 -4 -4 -4 -5 -5 -5 -4 -4
5 5 5 5 5 5 4 4 3 4 4 3 3 4 4 4 3 3 3 3 3 3 2 2 2 2 2 2 2 2 2 1 1 1 1 0 -0 -0 -0 -1 -1 -1 -1 -2 -2 -2 -2 -3 -3 -3 -4 -4 -4 -4 -4 -4 -4 -4 -4 -4 -5 -5 -6 -6 -7 -6 -6 -6 -6 -6 -6 -6 -5 -5 -5 -5 -5 -4 -5 -5 -5 -5 -5 -4 -4
5 5 5 5 5 5 5 4 3 4 4 3 3 3 3 3 3 3 3 3 3 3 2 2 2 2 2 2 2 2 1 1 1 1 0 0 -0 -0 -1 -1 -1 -1 -1 -2 -2 -2 -3 -3 -3 -4 -4 -4 -4 -4 -4 -4 -4 -4 -4 -4 -5 -5 -6 -6 -6 -6 -6 -6 -6 -6 -7 -6 -5 -5 -5 -5 -5 -5 -5 -5 -5 -5 -4 -4 -4
5 5 5 5 5 5 5 4 3 4 4 3 3 3 3 3 3 3 3 3 3 3 2 2 2 2 2 2 2 2 1 1 1 1 0 0 -0 -1 -1 -1 -1 -1 -2 -2 -2 -2 -3 -3 -3 -4 -4 -4 -4 -4 -4 -4 -4 -4 -4 -4 -4 -5 -5 -6 -6 -6 -6 -6 -7 -7 -7 -6 -6 -6 -6 -5 -5 -5 -5 -5 -5 -4 -4 -4 -4
5 5 5 5 5 5 5 4 4 4 4 3 3 3 3 3 3 3 3 3 3 3 2 2 2 2 2 2 2 1 1 1 1 0 0 -0 -1 -1 -1 -1 -1 -2 -2 -2 -2 -3 -3 -3 -3 -3 -3 -4 -4 -4 -4 -4 -4 -4 -4 -4 -4 -5 -5 -5 -6 -6 -6 -6 -7 -7 -7 -7 -7 -6 -6 -5 -5 -5 -5 -5 -5 -5 -4 -4 -5
5 5 5 5 5 5 5 5 4 4 4 3 3 3 3 3 3 3 3 3 3 3 2 2 2 2 2 2 1 1 1 1 0 0 0 -0 -1 -1 -1 -1 -1 -2 -2 -2 -2 -3 -3 -2 -2 -3 -3 -4 -4 -4 -4 -4 -4 -4 -4 -4 -4 -4 -5 -5 -5 -6 -6 -6 -7 -7 -7 -7 -7 -6 -6 -5 -5 -5 -5 -5 -5 -5 -5 -5 -5
5 5 5 5 5 5 5 5 5 4 4 3 3 4 3 3 3 3 3 3 3 2 2 2 2 2 2 1 1 1 1 1 0 0 -0 -0 -1 -1 -1 -1 -2 -2 -2 -2 -2 -3 -2 -2 -3 -3 -3 -4 -4 -4 -5 -5 -4 -4 -4 -4 -4 -4 -4 -5 -5 -6 -6 -7 -7 -7 -7 -7 -7 -6 -6 -6 -5 -5 -5 -5 -5 -5 -5 -5 -5
5 5 5 5 5 4 4 5 5 4 4 4 3 3 3 3 3 3 3 3 2 2 2 2 2 2 2 1 1 1 1 0 0 -0 -0 -0 -1 -1 -1 -1 -2 -2 -2 -2 -2 -2 -2 -2 -3 -3 -3 -4 -4 -4 -5 -5 -4 -4 -4 -4 -4 -4 -4 -5 -5 -6 -6 -7 -7 -7 -7 -7 -7 -6 -6 -6 -6 -5 -5 -5 -5 -5 -5 -5 -5
5 5 5 5 4 4 4 4 4 4 4 4 3 3 3 3 3 3 3 3 2 2 2 2 2 2 2 1 1 1 1 0 -0 -0 -0 -0 -1 -1 -1 -1 -2 -2 -2 -2 -2 -2 -2 -2 -3 -3 -3 -3 -4 -4 -5 -5 -4 -4 -4 -4 -4 -4 -4 -5 -5 -6 -6 -6 -7 -7 -7 -7 -7 -7 -7 -6 -6 -6 -6 -5 -5 -5 -5 -5 -5
5 4 4 4 4 4 4 4 4 4 4 4 4 3 3 3 3 3 3 2 2 2 2 2 2 2 2 1 1 1 1 0 -0 -0 -0 -1 -1 -1 -1 -2 -2 -2 -2 -2 -2 -2 -2 -3 -3 -3 -3 -3 -4 -4 -5 -5 -5 -4 -4 -4 -4 -4 -4 -5 -5 -6 -6 -6 -6 -7 -7 -7 -7 -7 -6 -6 -7 -7 -6 -6 -6 -6 -5 -5 -5
4 4 4 3 4 4 4 4 4 4 4 4 3 3 3 3 3 3 2 2 2 2 2 2 2 2 2 1 1 1 0 -0 -0 -1 -1 -1 -1 -1 -1 -2 -2 -2 -2 -2 -2 -2 -2 -3 -3 -3 -3 -3 -4 -4 -5 -5 -5 -4 -4 -4 -4 -4 -4 -5 -5 -6 -6 -6 -6 -6 -7 -7 -7 -7 -7 -6 -6 -6 -6 -6 -6 -6 -6 -5 -5
4 4 3 3 3 4 4 4 3 3 3 3 3 3 3 3 2 2 2 2 2 2 2 2 2 2 1 1 1 1 0 -0 -1 -1 -1 -1 -1 -1 -1 -2 -2 -2 -2 -2 -2 -2 -2 -3 -3 -3 -3 -3 -4 -4 -5 -5 -5 -5 -4 -4 -4 -4 -4 -4 -5 -5 -6 -6 -6 -6 -7 -7 -7 -7 -7 -6 -6 -6 -6 -5 -5 -6 -6 -6 -6
3 4 3 2 3 3 3 3 3 3 3 3 3 3 3 3 2 2 2 2 2 2 2 2 2 2 1 1 1 1 0 -0 -1 -1 -1 -1 -1 -1 -1 -2 -2 -2 -2 -2 -2 -2 -2 -3 -3 -3 -3 -3 -4 -4 -5 -5 -5 -5 -4 -4 -4 -4 -4 -4 -5 -5 -5 -6 -6 -6 -6 -7 -7 -7 -7 -6 -6 -6 -6 -5 -5 -6 -6 -6 -6
2 3 3 2 2 3 3 3 3 3 3 3 3 3 3 3 2 2 2 2 2 2 2 2 2 2 1 1 1 1 0 -0 -1 -1 -1 -1 -1 -1 -2 -2 -2 -2 -2 -2 -2 -2 -2 -3 -3 -3 -3 -3 -4 -4 -5 -5 -5 -5 -5 -4 -4 -4 -4 -4 -5 -5 -5 -5 -6 -6 -6 -6 -6 -6 -6 -6 -6 -6 -5 -5 -5 -5 -5 -6 -6
1 2 3 2 2 3 3 3 3 2 2 2 3 3 3 3 2 2 2 2 2 2 2 2 2 2 1 1 1 0 0 -0 -1 -1 -1 -1 -1 -1 -2 -2 -2 -2 -2 -3 -2 -2 -3 -3 -3 -3 -3 -3 -4 -4 -5 -5 -5 -5 -5 -5 -4 -4 -4 -4 -4 -5 -5 -5 -5 -6 -6 -6 -6 -6 -6 -6 -6 -6 -5 -5 -5 -5 -5 -5 -6
1 2 2 2 2 2 2 2 2 2 2 2 2 3 3 2 2 2 2 2 2 2 2 2 2 2 1 1 1 0 0 -0 -1 -1 -1 -1 -2 -2 -2 -2 -2 -2 -2 -3 -3 -3 -3 -3 -3 -3 -3 -3 -3 -4 -4 -5 -5 -5 -5 -5 -4 -4 -4 -4 -4 -4 -5 -5 -5 -6 -6 -6 -6 -6 -6 -6 -7 -6 -6 -5 -5 -6 -5 -5 -6
1 1 2 2 2 2 2 2 2 2 2 2 2 2 2 2 2 2 2 2 2 2 2 2 1 1 1 1 1 1 0 -0 -1 -1 -1 -1 -2 -2 -2 -2 -2 -2 -2 -3 -3 -3 -3 -3 -3 -3 -3 -3 -3 -4 -4 -5 -5 -5 -5 -5 -5 -4 -4 -4 -4 -4 -5 -5 -5 -5 -6 -6 -6 -6 -6 -6 -7 -7 -6 -6 -6 -6 -5 -6 -6
1 1 1 2 2 2 2 2 2 2 2 2 2 2 2 2 2 2 2 2 2 2 2 2 1 1 1 1 1 0 -0 -1 -1 -1 -1 -1 -2 -2 -2 -2 -2 -2 -2 -3 -3 -3 -3 -3 -3 -3 -3 -3 -3 -3 -4 -5 -5 -5 -5 -5 -5 -5 -4 -4 -4 -4 -4 -5 -5 -5 -5 -6 -6 -6 -6 -6 -6 -6 -6 -6 -6 -6 -6 -6 -6
1 1 1 2 2 2 1 1 1 2 2 2 2 2 2 2 2 1 1 1 2 2 2 1 1 1 1 1 0 -0 -0 -1 -1 -1 -1 -1 -2 -2 -2 -2 -2 -2 -2 -3 -3 -3 -3 -3 -3 -3 -3 -3 -3 -4 -4 -4 -5 -5 -5 -5 -5 -5 -5 -4 -4 -4 -4 -5 -5 -5 -5 -5 -6 -6 -6 -6 -6 -6 -6 -6 -6 -6 -6 -6 -5
1 0 1 1 2 2 1 1 1 1 2 2 2 2 2 2 1 1 1 1 1 1 1 1 1 1 1 0 -0 -0 -0 -0 -1 -1 -1 -2 -2 -2 -2 -2 -2 -2 -2 -3 -3 -3 -3 -3 -4 -4 -4 -4 -4 -4 -4 -4 -5 -5 -5 -5 -5 -5 -5 -5 -4 -4 -4 -4 -5 -5 -5 -5 -6 -6 -6 -6 -6 -6 -6 -6 -6 -6 -6 -6 -6
1 1 0 1 1 2 2 1 1 1 1 2 2 1 1 1 1 1 1 1 1 1 1 1 1 1 0 -0 -0 -0 -0 -0 -1 -1 -1 -2 -2 -2 -2 -2 -2 -3 -3 -3 -3 -3 -3 -3 -4 -4 -4 -4 -4 -4 -4 -4 -4 -5 -5 -5 -5 -5 -5 -5 -5 -4 -4 -4 -5 -5 -5 -5 -5 -6 -6 -6 -6 -6 -7 -7 -6 -6 -6 -6 -6
1 1 0 0 1 2 2 1 1 1 1 1 1 1 1 1 1 1 1 1 1 1 1 0 0 0 -0 -0 -0 -0 -0 -1 -1 -1 -1 -2 -2 -2 -2 -2 -3 -3 -3 -3 -3 -3 -3 -4 -4 -4 -4 -4 -4 -4 -4 -4 -5 -5 -5 -5 -6 -6 -5 -5 -5 -5 -4 -4 -5 -5 -5 -5 -5 -5 -6 -6 -6 -6 -6 -7 -7 -7 -6 -6 -6
0 1 0 0 0 1 1 1 1 1 1 1 1 1 1 1 1 1 1 1 0 0 0 0 -0 -0 -0 -1 -0 -1 -1 -1 -1 -1 -2 -2 -2 -2 -2 -3 -3 -3 -3 -3 -3 -3 -4 -4 -4 -4 -4 -4 -4 -4 -4 -4 -5 -5 -5 -5 -6 -6 -6 -5 -5 -5 -4 -4 -4 -5 -5 -5 -5 -5 -5 -6 -6 -6 -6 -6 -7 -7 -6 -6 -6
0 0 0 0 0 1 1 1 1 1 1 1 1 1 1 1 1 1 1 1 -0 -0 0 0 -0 -1 -1 -1 -1 -1 -1 -1 -1 -1 -2 -2 -2 -2 -2 -3 -3 -3 -3 -3 -3 -3 -4 -4 -4 -4 -5 -5 -4 -4 -4 -5 -5 -5 -5 -5 -6 -6 -6 -6 -5 -5 -5 -5 -4 -5 -5 -5 -5 -5 -5 -5 -6 -6 -6 -6 -6 -6 -6 -6 -6
0 0 -0 -0 0 1 1 1 0 1 1 1 1 1 1 1 1 1 1 0 -1 -1 0 1 -0 -1 -1 -1 -2 -2 -2 -2 -1 -1 -2 -2 -2 -2 -3 -3 -3 -3 -3 -3 -3 -4 -4 -4 -4 -5 -5 -5 -5 -5 -5 -5 -5 -5 -5 -5 -6 -6 -6 -6 -6 -5 -5 -5 -5 -5 -5 -5 -5 -5 -5 -5 -5 -6 -6 -6 -6 -6 -6 -6 -6
0 0 -0 -0 -1 0 1 1 0 0 0 1 0 1 1 1 0 1 1 -0 -1 -0 1 1 -0 -1 -2 -2 -2 -2 -2 -2 -1 -2 -2 -2 -2 -2 -3 -3 -3 -3 -3 -3 -3 -4 -4 -4 -5 -5 -5 -5 -5 -5 -5 -5 -5 -5 -5 -5 -6 -6 -6 -6 -6 -6 -6 -5 -5 -5 -5 -5 -5 -5 -5 -5 -5 -5 -6 -6 -6 -6 -6 -6 -6
1 1 0 -0 -1 -0 0 1 0 0 0 0 0 0 1 0 0 1 1 -0 -1 -0 1 1 -0 -1 -2 -2 -2 -3 -2 -1 -2 -2 -2 -2 -2 -3 -3 -3 -3 -3 -3 -3 -4 -4 -4 -4 -5 -5 -5 -5 -5 -5 -5 -5 -5 -5 -5 -6 -6 -6 -6 -6 -6 -6 -6 -6 -5 -5 -5 -5 -5 -5 -5 -5 -5 -5 -5 -6 -6 -6 -6 -6 -6
1 1 0 -0 -1 -0 -0 0 0 0 0 -0 -0 0 0 0 1 1 0 -1 -1 0 1 0 -0 -1 -2 -2 -3 -2 -2 -1 -2 -2 -2 -2 -2 -3 -3 -3 -3 -3 -3 -3 -4 -4 -4 -4 -5 -5 -5 -5 -5 -5 -5 -5 -5 -5 -6 -6 -6 -6 -6 -7 -7 -6 -6 -6 -6 -6 -5 -5 -5 -5 -5 -5 -5 -5 -5 -5 -5 -6 -6 -6 -6
2 1 1 0 -0 -0 -0 -0 0 0 -0 -0 -0 0 0 0 1 1 0 -1 -1 0 1 -0 -1 -1 -2 -3 -3 -2 -2 -2 -2 -2 -2 -2 -3 -3 -3 -3 -3 -3 -3 -3 -4 -4 -4 -4 -5 -5 -5 -5 -5 -5 -5 -5 -5 -6 -6 -6 -6 -6 -7 -7 -7 -7 -6 -6 -6 -6 -6 -5 -5 -5 -5 -5 -5 -5 -5 -5 -5 -6 -6 -6 -6
Height
3113 3113 3112 3111 3111 3110 3109 3108 3106 3105 3103 3102 3100 3098 3097 3095 3094 3093 3091 3090 3088 3086 3084 3082 3080 3078 3076 3074 3072 3070 3068 3066 3064 3062 3060 3058 3056 3054 3052 3050 3048 3046 3044 3042 3040 3039 3037 3036 3034 3032 3031 3029 3028 3028 3027 3027 3026 3024 3023 3022 3020 3019 3018 3017 3016 3015 3014 3012 3011 3009 3008 3007 3005 3004 3003 3001 3000 2999 2998 2997 2996 2996 2995 2994 2994
3113 3112 3112 3111 3111 3110 3109 3108 3106 3105 3103 3102 3100 3098 3097 3096 3095 3094 3092 3090 3089 3087 3085 3083 3081 3079 3077 3075 3073 3071 3069 3067 3064 3062 3060 3058 3056 3054 3052 3050 3048 3047 3045 3042 3040 3039 3037 3036 3034 3033 3031 3030 3028 3028 3027 3027 3027 3026 3025 3023 3021 3020 3019 3018 3017 3016 3015 3014 3012 3011 3010 3008 3007 3006 3005 3004 3003 3002 3000 2999 2998 2998 2997 2996 2996
3113 3112 3111 3111 3110 3110 3109 3108 3106 3105 3103 3102 3100 3099 3097 3096 3095 3094 3093 3091 3090 3088 3086 3084 3082 3080 3078 3075 3073 3071 3069 3067 3065 3063 3060 3058 3056 3054 3052 3050 3049 3047 3045 3043 3041 3039 3037 3036 3034 3033 3031 3030 3029 3028 3027 3027 3026 3026 3025 3024 3022 3021 3020 3019 3018 3017 3016 3015 3014 3012 3011 3010 3009 3008 3007 3006 3005 3004 3003 3002 3000 2999 2999 2998 2998
3113 3112 3111 3111 3110 3110 3109 3108 3107 3105 3104 3102 3100 3099 3098 3097 3096 3095 3094 3092 3090 3089 3087 3084 3082 3080 3078 3076 3074 3072 3070 3068 3065 3063 3061 3059 3057 3055 3053 3051 3049 3047 3045 3043 3041 3039 3038 3036 3034 3033 3031 3030 3029 3028 3028 3027 3026 3025 3025 3024 3023 3022 3021 3020 3019 3018 3017 3016 3015 3014 3013 3012 3011 3010 3009 3008 3007 3006 3005 3004 3002 3001 3001 3000 2999
3113 3112 3111 3111 3110 3109 3109 3108 3107 3105 3104 3102 3101 3099 3099 3098 3097 3096 3094 3093 3091 3090 3087 3085 3083 3081 3079 3076 3074 3072 3070 3068 3066 3064 3062 3059 3057 3055 3053 3051 3049 3047 3046 3044 3042 3040 3038 3037 3035 3033 3032 3030 3029 3028 3028 3027 3026 3025 3025 3024 3023 3022 3022 3021 3020 3019 3018 3017 3016 3015 3014 3013 3013 3012 3011 3009 3008 3007 3006 3005 3004 3003 3002 3002 3001
3113 3112 3111 3110 3110 3109 3109 3108 3107 3106 3104 3103 3101 3100 3099 3098 3098 3097 3095 3094 3092 3091 3089 3086 3084 3082 3079 3077 3075 3073 3071 3069 3067 3065 3062 3060 3058 3056 3054 3052 3050 3048 3046 3045 3043 3041 3039 3037 3035 3034 3032 3031 3029 3028 3028 3027 3026 3025 3025 3024 3024 3023 3022 3021 3020 3019 3019 3018 3017 3016 3015 3014 3014 3013 3012 3011 3010 3009 3008 3007 3006 3005 3004 3004 3003
3114 3113 3111 3110 3110 3109 3109 3108 3107 3106 3104 3103 3101 3101 3100 3099 3099 3098 3096 3095 3093 3092 3090 3087 3085 3083 3080 3078 3076 3074 3072 3070 3068 3066 3063 3061 3059 3056 3054 3052 3050 3048 3047 3045 3044 3042 3040 3038 3036 3034 3033 3031 3030 3028 3027 3027 3026 3025 3024 3024 3024 3023 3023 3022 3021 3020 3019 3019 3017 3017 3016 3015 3015 3014 3013 3012 3011 3010 3009 3009 3008 3007 3006 3006 3005
3114 3113 3112 3111 3109 3109 3108 3108 3107 3106 3104 3103 3102 3101 3101 3100 3099 3098 3097 3096 3094 3092 3091 3088 3086 3084 3081 3079 3077 3075 3073 3071 3069 3066 3064 3062 3059 3057 3055 3053 3051 3049 3047 3046 3044 3042 3040 3038 3037 3035 3033 3032 3030 3029 3027 3027 3026 3025 3024 3024 3024 3023 3023 3022 3021 3021 3020 3019 3018 3017 3017 3016 3016 3015 3014 3013 3013 3012 3011 3010 3009 3009 3008 3007 3007
3114 3113 3112 3111 3110 3109 3108 3107 3107 3106 3104 3103 3102 3101 3101 3100 3100 3099 3098 3097 3095 3093 3091 3089 3087 3085 3083 3080 3078 3076 3074 3072 3070 3067 3065 3063 3060 3058 3056 3054 3052 3050 3048 3046 3044 3043 3041 3039 3037 3035 3034 3032 3030 3029 3028 3026 3026 3025 3024 3024 3023 3023 3023 3022 3021 3021 3020 3020 3019 3018 3017 3017 3016 3016 3015 3015 3014 3013 3012 3011 3010 3010 3009 3009 3008
3115 3113 3112 3111 3110 3109 3108 3107 3106 3105 3104 3103 3102 3102 3101 3101 3101 3100 3099 3098 3096 3094 3092 3090 3088 3086 3084 3081 3079 3076 3074 3072 3070 3068 3066 3063 3061 3059 3056 3055 3053 3051 3049 3047 3045 3043 3041 3039 3038 3036 3034 3032 3031 3029 3028 3027 3026 3025 3024 3023 3023 3023 3022 3022 3021 3020 3020 3019 3018 3018 3017 3017 3016 3016 3016 3015 3014 3014 3013 3012 3011 3011 3010 3010 3009
3114 3113 3112 3111 3110 3109 3108 3107 3106 3105 3104 3103 3102 3102 3101 3101 3101 3100 3099 3098 3097 3095 3093 3091 3089 3087 3085 3082 3080 3077 3075 3073 3071 3068 3066 3064 3062 3059 3057 3055 3054 3052 3050 3048 3046 3044 3042 3040 3038 3036 3035 3033 3031 3030 3028 3027 3026 3025 3024 3023 3023 3022 3022 3021 3020 3020 3019 3019 3018 3017 3017 3017 3016 3016 3016 3015 3015 3014 3013 3013 3012 3012 3011 3011 3011
3114 3113 3112 3111 3110 3109 3108 3107 3106 3105 3104 3103 3102 3102 3101 3101 3101 3100 3100 3098 3097 3096 3094 3092 3090 3088 3086 3083 3081 3078 3076 3073 3071 3069 3067 3065 3063 3060 3058 3056 3054 3053 3051 3049 3047 3045 3043 3041 3039 3037 3035 3033 3032 3030 3028 3027 3026 3025 3024 3023 3023 3022 3021 3020 3020 3019 3019 3018 3017 3017 3017 3016 3016 3016 3016 3016 3015 3014 3014 3013 3013 3013 3012 3012 3012
3114 3113 3112 3111 3110 3109 3108 3107 3106 3105 3104 3103 3102 3101 3101 3101 3100 3100 3100 3099 3097 3096 3094 3092 3091 3088 3086 3084 3081 3079 3076 3074 3072 3069 3067 3065 3063 3061 3059 3057 3055 3053 3051 3050 3047 3045 3044 3042 3040 3038 3036 3034 3032 3030 3029 3027 3026 3025 3024 3024 3023 3022 3021 3020 3020 3019 3018 3018 3017 3017 3016 3016 3016 3016 3016 3015 3015 3015 3015 3014 3014 3013 3013 3013 3012
3113 3112 3112 3111 3110 3109 3107 3107 3106 3105 3104 3103 3102 3101 3101 3100 3100 3100 3099 3098 3097 3096 3094 3093 3091 3089 3087 3084 3082 3079 3077 3075 3072 3070 3068 3066 3064 3062 3060 3057 3055 3053 3052 3050 3048 3046 3044 3042 3040 3038 3036 3034 3032 3030 3029 3027 3026 3025 3025 3025 3024 3023 3022 3021 3020 3019 3018 3017 3017 3016 3016 3016 3016 3016 3016 3015 3015 3015 3016 3015 3014 3014 3014 3013 3013
3113 3112 3111 3110 3109 3108 3107 3106 3105 3104 3103 3103 3102 3101 3100 3100 3099 3099 3099 3098 3097 3096 3095 3093 3091 3089 3087 3085 3082 3080 3077 3075 3073 3070 3068 3066 3064 3062 3060 3058 3056 3054 3052 3050 3048 3046 3044 3043 3041 3038 3036 3034 3033 3031 3029 3028 3027 3026 3025 3025 3024 3023 3022 3021 3020 3019 3018 3017 3017 3017 3016 3016 3015 3015 3015 3015 3016 3016 3016 3016 3015 3015 3014 3014 3014
3112 3111 3111 3110 3109 3108 3107 3106 3105 3104 3103 3102 3102 3101 3100 3099 3099 3098 3098 3097 3097 3096 3094 3093 3091 3089 3087 3085 3083 3080 3078 3075 3073 3071 3068 3066 3064 3062 3060 3058 3056 3054 3052 3050 3048 3047 3045 3043 3041 3039 3037 3035 3033 3031 3029 3028 3027 3026 3025 3025 3024 3023 3022 3022 3021 3020 3018 3017 3017 3017 3016 3016 3016 3016 3015 3015 3016 3016 3016 3016 3015 3015 3015 3015 3014
3111 3111 3110 3109 3108 3107 3106 3105 3104 3103 3103 3102 3101 3100 3099 3099 3098 3098 3097 3096 3096 3095 3094 3093 3091 3089 3087 3085 3083 3080 3078 3075 3073 3071 3069 3066 3064 3062 3061 3058 3056 3054 3052 3050 3048 3047 3045 3043 3041 3039 3037 3035 3033 3031 3029 3028 3027 3026 3025 3025 3024 3023 3022 3022 3021 3021 3019 3018 3017 3017 3017 3016 3016 3016 3016 3016 3016 3016 3016 3016 3016 3016 3015 3015 3015
3110 3110 3109 3108 3107 3106 3105 3105 3104 3103 3102 3101 3100 3100 3099 3098 3098 3097 3096 3096 3095 3094 3093 3092 3091 3089 3087 3085 3083 3081 3078 3075 3073 3071 3069 3067 3064 3063 3061 3059 3056 3054 3052 3051 3049 3047 3045 3043 3041 3039 3037 3035 3033 3032 3030 3028 3027 3026 3025 3024 3024 3023 3023 3022 3022 3021 3019 3018 3017 3017 3017 3017 3017 3017 3016 3016 3016 3016 3016 3016 3016 3016 3016 3016 3016
3109 3108 3108 3107 3106 3105 3104 3103 3103 3102 3101 3100 3099 3099 3098 3097 3097 3096 3096 3095 3094 3093 3092 3091 3090 3089 3087 3085 3083 3081 3078 3076 3073 3071 3069 3067 3065 3063 3061 3059 3057 3054 3052 3050 3048 3047 3045 3043 3041 3039 3037 3035 3034 3032 3030 3029 3027 3026 3025 3024 3024 3023 3023 3022 3021 3021 3020 3019 3017 3017 3017 3017 3017 3017 3017 3016 3016 3016 3016 3017 3017 3017 3016 3017 3017
3107 3106 3106 3105 3104 3103 3103 3102 3102 3100 3100 3099 3098 3098 3097 3096 3096 3095 3095 3094 3093 3092 3092 3091 3089 3088 3087 3085 3083 3081 3078 3076 3073 3071 3069 3067 3065 3063 3061 3059 3057 3055 3052 3050 3047 3046 3044 3042 3040 3038 3037 3035 3033 3032 3031 3029 3028 3026 3025 3024 3024 3023 3022 3022 3022 3021 3020 3019 3018 3017 3017 3018 3017 3017 3017 3017 3017 3017 3017 3017 3017 3017 3017 3017 3018
3105 3104 3103 3103 3102 3102 3101 3101 3100 3099 3098 3098 3097 3096 3096 3095 3094 3094 3093 3093 3092 3091 3090 3090 3089 3087 3086 3084 3082 3080 3078 3076 3073 3071 3069 3067 3065 3063 3061 3059 3057 3055 3052 3050 3047 3046 3044 3042 3040 3038 3036 3035 3033 3032 3031 3029 3028 3026 3025 3024 3023 3023 3022 3022 3022 3021 3021 3020 3018 3018 3018 3018 3018 3018 3018 3018 3017 3017 3017 3017 3017 3017 3017 3017 3018
3103 3102 3101 3100 3100 3099 3099 3098 3097 3097 3096 3096 3095 3095 3094 3094 3093 3092 3092 3091 3091 3090 3089 3088 3088 3087 3085 3084 3082 3080 3078 3076 3073 3071 3069 3067 3065 3063 3061 3060 3058 3055 3052 3050 3047 3046 3044 3042 3040 3038 3036 3035 3033 3032 3031 3029 3028 3026 3025 3024 3023 3023 3022 3022 3022 3021 3021 3020 3019 3018 3018 3018 3018 3018 3018 3018 3018 3017 3017 3017 3017 3017 3017 3017 3018
3101 3100 3099 3097 3097 3096 3096 3095 3094 3095 3095 3094 3093 3093 3092 3092 3091 3091 3090 3090 3089 3088 3088 3087 3087 3086 3085 3083 3081 3080 3077 3075 3073 3071 3068 3067 3065 3063 3061 3060 3058 3055 3052 3050 3048 3046 3044 3042 3040 3038 3037 3035 3034 3032 3031 3029 3028 3027 3025 3024 3023 3023 3022 3022 3022 3021 3021 3020 3019 3018 3017 3018 3018 3019 3019 3019 3018 3018 3017 3017 3017 3017 3017 3018 3018
3099 3098 3097 3096 3094 3093 3093 3092 3092 3092 3092 3092 3091 3090 3090 3090 3089 3089 3088 3088 3087 3087 3086 3086 3085 3085 3084 3083 3081 3079 3077 3075 3073 3070 3068 3066 3065 3063 3061 3060 3058 3055 3052 3050 3048 3046 3044 3042 3040 3039 3037 3035 3034 3033 3031 3030 3028 3027 3026 3025 3024 3023 3022 3022 3022 3022 3021 3020 3019 3018 3018 3018 3018 3019 3019 3019 3019 3018 3018 3018 3017 3017 3017 3017 3017
3097 3096 3095 3094 3092 3091 3091 3091 3090 3089 3089 3089 3089 3088 3088 3087 3087 3087 3086 3086 3086 3085 3085 3084 3084 3083 3083 3082 3080 3079 3077 3075 3072 3070 3068 3066 3065 3063 3061 3060 3058 3055 3052 3051 3049 3046 3044 3043 3041 3039 3038 3036 3035 3033 3032 3030 3029 3027 3026 3025 3024 3023 3023 3022 3022 3022 3021 3021 3020 3019 3018 3018 3018 3019 3019 3019 3019 3019 3018 3018 3018 3017 3017 3018 3018
3094 3093 3092 3092 3090 3088 3088 3089 3088 3087 3087 3087 3087 3086 3086 3085 3084 3084 3084 3084 3084 3083 3083 3083 3082 3082 3081 3080 3079 3078 3076 3074 3072 3070 3068 3066 3064 3063 3061 3060 3058 3055 3053 3051 3049 3046 3045 3044 3042 3040 3038 3037 3036 3034 3033 3031 3029 3028 3027 3026 3025 3024 3023 3023 3023 3022 3022 3021 3021 3020 3020 3019 3019 3019 3020 3020 3020 3019 3019 3019 3019 3019 3019 3019 3019
3091 3090 3090 3089 3088 3086 3086 3086 3085 3084 3085 3085 3084 3084 3083 3082 3082 3082 3082 3082 3082 3082 3081 3081 3081 3080 3080 3079 3078 3076 3075 3073 3071 3069 3067 3065 3064 3063 3061 3060 3058 3055 3054 3052 3049 3048 3047 3045 3043 3041 3040 3038 3036 3035 3033 3032 3030 3029 3027 3026 3025 3024 3023 3023 3023 3023 3022 3022 3021 3021 3021 3020 3020 3020 3020 3020 3021 3020 3020 3020 3020 3020 3020 3020 3020
3087 3086 3086 3086 3085 3084 3084 3083 3082 3081 3082 3083 3082 3081 3081 3080 3080 3079 3079 3079 3080 3080 3079 3079 3079 3079 3078 3077 3076 3075 3074 3072 3070 3069 3067 3065 3064 3063 3061 3060 3058 3056 3054 3052 3050 3049 3048 3046 3043 3042 3040 3038 3037 3036 3034 3032 3031 3030 3028 3027 3026 3025 3024 3023 3023 3023 3023 3022 3022 3022 3021 3021 3020 3020 3021 3021 3021 3021 3021 3021 3021 3021 3022 3021 3021
3082 3081 3081 3082 3082 3081 3081 3080 3079 3078 3078 3079 3079 3078 3078 3078 3077 3077 3077 3077 3077 3077 3077 3077 3077 3077 3076 3076 3075 3074 3073 3071 3070 3068 3066 3065 3064 3062 3061 3060 3058 3056 3054 3053 3051 3050 3048 3046 3044 3042 3041 3039 3038 3036 3034 3033 3032 3030 3029 3028 3027 3026 3025 3024 3023 3023 3023 3023 3022 3022 3022 3021 3021 3020 3021 3021 3022 3022 3022 3022 3022 3022 3022 3022 3022
3078 3077 3076 3077 3078 3078 3077 3077 3076 3074 3075 3075 3074 3074 3075 3075 3074 3074 3075 3074 3074 3075 3075 3075 3075 3075 3074 3074 3073 3073 3071 3070 3069 3067 3066 3065 3063 3062 3061 3060 3058 3056 3055 3053 3052 3050 3048 3046 3044 3043 3041 3040 3038 3036 3035 3034 3032 3031 3030 3029 3028 3027 3025 3024 3024 3024 3023 3023 3022 3022 3022 3022 3021 3020 3021 3022 3022 3022 3022 3022 3023 3023 3023 3023 3023
3073 3073 3072 3072 3073 3074 3073 3074 3073 3071 3071 3072 3071 3070 3071 3071 3071 3072 3072 3072 3072 3072 3072 3073 3073 3073 3072 3072 3072 3071 3070 3069 3068 3067 3065 3064 3063 3062 3061 3060 3058 3057 3055 3053 3052 3050 3048 3046 3045 3043 3042 3040 3039 3037 3035 3034 3033 3032 3031 3030 3029 3027 3026 3025 3024 3024 3024 3023 3023 3022 3023 3022 3022 3021 3021 3022 3022 3023 3023 3023 3023 3023 3024 3024 3025
3068 3068 3067 3067 3068 3069 3069 3070 3070 3069 3068 3068 3067 3066 3066 3068 3069 3069 3069 3069 3069 3070 3070 3071 3071 3070 3070 3070 3070 3070 3069 3068 3067 3066 3065 3064 3063 3062 3061 3059 3058 3057 3055 3053 3052 3050 3048 3046 3045 3043 3042 3041 3039 3037 3036 3035 3034 3032 3031 3030 3029 3028 3027 3026 3025 3024 3024 3023 3023 3023 3023 3023 3022 3022 3022 3022 3022 3023 3023 3023 3024 3024 3025 3025 3026
3063 3063 3063 3062 3062 3064 3065 3066 3066 3065 3064 3064 3063 3062 3062 3064 3066 3067 3066 3066 3067 3067 3068 3068 3068 3068 3068 3068 3068 3068 3068 3067 3066 3065 3064 3063 3062 3061 3060 3059 3058 3057 3055 3054 3052 3050 3048 3047 3045 3044 3042 3041 3039 3038 3036 3035 3034 3033 3032 3031 3030 3029 3027 3026 3025 3025 3024 3023 3023 3023 3023 3023 3023 3023 3022 3023 3023 3023 3023 3023 3024 3025 3025 3026 3026
3057 3058 3058 3057 3057 3059 3060 3061 3062 3062 3060 3059 3059 3059 3060 3061 3063 3064 3063 3063 3064 3065 3066 3066 3066 3066 3066 3066 3067 3067 3066 3066 3065 3064 3063 3062 3062 3061 3060 3059 3058 3056 3055 3054 3052 3051 3049 3047 3046 3044 3043 3041 3040 3038 3037 3036 3035 3034 3033 3032 3031 3030 3028 3027 3026 3026 3025 3024 3023 3023 3023 3023 3023 3023 3023 3023 3024 3023 3023 3023 3025 3025 3026 3026 3027
3053 3053 3053 3052 3052 3054 3055 3056 3057 3057 3057 3056 3055 3055 3056 3058 3059 3059 3060 3061 3061 3062 3063 3063 3064 3064 3064 3064 3065 3065 3065 3065 3064 3063 3062 3061 3061 3060 3059 3058 3058 3056 3055 3053 3052 3051 3049 3047 3046 3045 3043 3042 3040 3039 3037 3036 3035 3034 3033 3032 3032 3030 3029 3028 3027 3026 3026 3025 3024 3024 3023 3023 3024 3024 3024 3024 3024 3024 3023 3024 3025 3026 3026 3026 3027
3048 3048 3048 3047 3048 3049 3050 3052 3052 3053 3053 3052 3051 3050 3052 3053 3053 3054 3056 3057 3058 3059 3060 3060 3061 3061 3062 3062 3063 3063 3063 3063 3063 3062 3061 3060 3060 3059 3059 3058 3057 3056 3054 3053 3052 3051 3049 3048 3046 3045 3044 3043 3041 3039 3038 3037 3036 3035 3034 3033 3032 3031 3030 3029 3028 3027 3026 3026 3025 3024 3024 3024 3024 3025 3025 3024 3024 3024 3024 3024 3025 3026 3026 3027 3027
3044 3043 3043 3043 3044 3045 3045 3046 3048 3048 3048 3047 3047 3047 3047 3048 3048 3050 3052 3053 3054 3056 3057 3057 3058 3059 3060 3060 3061 3061 3061 3062 3061 3061 3060 3059 3058 3058 3058 3057 3056 3055 3054 3053 3052 3051 3050 3048 3047 3045 3044 3043 3042 3040 3039 3037 3036 3035 3035 3034 3033 3032 3031 3029 3029 3028 3027 3026 3026 3025 3025 3024 3024 3025 3025 3025 3024 3024 3024 3025 3026 3026 3027 3027 3027
3040 3039 3038 3038 3040 3040 3040 3041 3042 3043 3043 3043 3043 3043 3043 3043 3043 3046 3049 3050 3050 3052 3054 3054 3055 3056 3057 3058 3059 3059 3059 3060 3060 3059 3059 3058 3057 3057 3057 3056 3056 3055 3054 3053 3052 3051 3050 3048 3047 3046 3045 3044 3043 3041 3039 3038 3037 3036 3035 3034 3034 3033 3032 3031 3030 3029 3028 3027 3027 3026 3026 3025 3025 3025 3025 3025 3025 3025 3025 3025 3026 3026 3027 3028 3028
3036 3035 3033 3034 3035 3036 3036 3036 3037 3037 3038 3039 3039 3040 3040 3039 3039 3041 3045 3047 3047 3048 3051 3052 3052 3054 3055 3055 3056 3057 3058 3058 3058 3058 3057 3057 3056 3056 3056 3056 3055 3054 3053 3053 3052 3051 3050 3048 3047 3046 3045 3045 3044 3042 3040 3039 3038 3037 3036 3035 3034 3034 3033 3032 3031 3030 3029 3028 3028 3027 3026 3026 3026 3026 3026 3026 3025 3025 3026 3026 3027 3027 3027 3028 3028
3031 3030 3029 3029 3030 3031 3031 3031 3031 3032 3033 3034 3035 3036 3036 3035 3034 3036 3040 3043 3044 3045 3048 3049 3050 3051 3053 3053 3054 3055 3056 3056 3056 3056 3056 3056 3055 3055 3055 3055 3054 3054 3053 3052 3052 3051 3050 3049 3047 3046 3045 3045 3044 3043 3041 3040 3039 3037 3036 3036 3035 3034 3034 3033 3032 3031 3030 3029 3029 3028 3028 3027 3027 3027 3026 3026 3026 3026 3026 3027 3027 3027 3028 3029 3029
3026 3025 3023 3024 3025 3025 3026 3026 3027 3027 3028 3028 3029 3032 3033 3031 3029 3031 3035 3039 3040 3042 3044 3046 3047 3049 3050 3051 3052 3053 3053 3053 3054 3055 3054 3054 3054 3054 3054 3054 3054 3053 3052 3052 3052 3051 3050 3049 3047 3046 3046 3045 3045 3044 3042 3040 3039 3038 3037 3036 3036 3035 3035 3034 3033 3032 3031 3031 3030 3029 3029 3028 3028 3028 3027 3027 3027 3027 3027 3027 3028 3028 3029 3029 3030
3021 3020 3018 3019 3020 3020 3020 3021 3022 3023 3024 3023 3025 3027 3029 3028 3027 3028 3031 3034 3037 3039 3041 3043 3044 3046 3048 3049 3049 3050 3051 3051 3052 3053 3053 3053 3053 3053 3053 3053 3053 3052 3051 3051 3052 3051 3050 3049 3047 3046 3046 3045 3045 3044 3043 3041 3040 3039 3038 3037 3037 3036 3036 3035 3034 3033 3032 3032 3031 3031 3030 3030 3029 3029 3028 3028 3028 3028 3028 3028 3029 3029 3030 3030 3031
3016 3015 3014 3014 3014 3014 3015 3016 3017 3018 3018 3019 3021 3022 3023 3024 3025 3026 3027 3030 3033 3035 3037 3039 3042 3044 3045 3046 3046 3047 3048 3049 3050 3051 3051 3051 3051 3051 3052 3052 3052 3051 3051 3051 3051 3051 3050 3049 3048 3046 3046 3045 3045 3045 3044 3042 3040 3039 3038 3037 3037 3037 3036 3036 3035 3034 3034 3033 3032 3032 3031 3031 3031 3030 3030 3029 3029 3029 3029 3029 3030 3030 3031 3031 3032
3009 3009 3009 3008 3009 3009 3009 3010 3012 3013 3014 3015 3016 3017 3018 3020 3022 3022 3022 3025 3029 3031 3033 3036 3039 3041 3042 3043 3044 3045 3046 3047 3048 3049 3050 3050 3050 3050 3050 3050 3050 3050 3050 3050 3050 3050 3049 3048 3047 3046 3045 3045 3045 3045 3044 3042 3041 3040 3039 3038 3038 3037 3037 3037 3036 3036 3035 3034 3034 3033 3033 3032 3032 3031 3031 3030 3030 3030 3030 3030 3030 3031 3032 3032 3033
3003 3004 3003 3003 3003 3004 3003 3003 3006 3009 3010 3010 3011 3011 3013 3015 3017 3017 3019 3023 3027 3029 3031 3033 3035 3037 3039 3040 3041 3043 3044 3045 3046 3047 3048 3048 3048 3049 3049 3049 3049 3049 3049 3049 3050 3050 3049 3048 3047 3046 3045 3045 3045 3045 3044 3043 3041 3040 3039 3038 3038 3038 3038 3037 3037 3036 3036 3035 3035 3034 3034 3034 3033 3033 3032 3032 3032 3031 3031 3031 3031 3031 3032 3033 3034
2997 2997 2997 2997 2997 2998 2998 2998 2999 3003 3005 3005 3006 3007 3009 3011 3012 3013 3016 3020 3024 3027 3029 3031 3032 3034 3035 3037 3039 3040 3041 3042 3043 3045 3046 3046 3047 3047 3048 3048 3048 3048 3048 3048 3049 3049 3048 3047 3047 3046 3045 3045 3045 3045 3044 3043 3042 3041 3040 3039 3038 3038 3038 3038 3037 3037 3037 3036 3036 3036 3035 3035 3034 3034 3034 3033 3033 3033 3032 3032 3032 3032 3033 3034 3035
2990 2991 2991 2991 2991 2992 2993 2993 2994 2997 3000 3001 3001 3003 3005 3006 3008 3010 3013 3017 3019 3022 3025 3028 3029 3030 3032 3034 3036 3038 3039 3040 3041 3043 3044 3044 3045 3046 3046 3046 3047 3047 3047 3048 3048 3048 3048 3047 3046 3046 3045 3044 3044 3045 3044 3043 3042 3041 3040 3039 3038 3038 3038 3038 3038 3037 3037 3037 3037 3037 3037 3036 3036 3035 3035 3035 3034 3034 3034 3034 3034 3034 3034 3035 3035
2982 2983 2985 2984 2984 2985 2986 2987 2988 2991 2995 2997 2997 2998 3000 3002 3004 3007 3010 3013 3015 3018 3022 3024 3025 3026 3028 3031 3033 3035 3036 3037 3039 3041 3041 3043 3044 3044 3045 3045 3045 3045 3046 3047 3047 3048 3047 3046 3046 3046 3045 3044 3044 3044 3044 3043 3042 3041 3040 3039 3038 3038 3038 3038 3038 3038 3038 3038 3038 3038 3038 3037 3037 3037 3036 3036 3036 3035 3035 3035 3035 3035 3035 3035 3036
2973 2975 2977 2977 2977 2977 2979 2980 2982 2986 2990 2992 2992 2994 2995 2998 3001 3004 3006 3009 3011 3015 3018 3020 3022 3023 3025 3028 3030 3032 3033 3035 3037 3038 3039 3041 3042 3043 3043 3043 3044 3044 3045 3046 3047 3047 3046 3046 3046 3045 3045 3044 3044 3044 3044 3043 3042 3041 3040 3039 3039 3038 3038 3038 3038 3038 3038 3038 3038 3038 3039 3038 3038 3038 3037 3037 3037 3037 3036 3036 3037 3037 3037 3037 3037
2964 2966 2969 2970 2970 2971 2972 2974 2976 2980 2984 2987 2988 2989 2991 2993 2996 2999 3002 3004 3007 3010 3013 3016 3018 3020 3022 3025 3027 3028 3030 3032 3034 3036 3038 3039 3040 3041 3041 3042 3042 3043 3044 3045 3046 3046 3045 3045 3045 3045 3044 3044 3043 3044 3043 3043 3042 3041 3040 3039 3039 3038 3038 3038 3038 3038 3038 3038 3038 3039 3039 3039 3039 3039 3038 3038 3038 3038 3038 3038 3038 3038 3038 3038 3038
2955 2957 2960 2963 2964 2964 2965 2967 2970 2975 2979 2981 2983 2985 2987 2989 2992 2995 2998 3000 3003 3007 3010 3013 3015 3017 3019 3022 3023 3025 3027 3029 3032 3034 3036 3037 3038 3039 3040 3040 3041 3042 3042 3044 3044 3045 3045 3044 3045 3045 3044 3043 3043 3044 3043 3043 3042 3041 3040 3040 3039 3039 3039 3039 3039 3038 3038 3039 3039 3039 3040 3040 3040 3040 3040 3039 3039 3039 3039 3039 3039 3039 3039 3039 3039
Wind_Speed
7 7 8 9 10 12 13 14 16 16 16 17 17 17 16 16 17 17 17 17 18 18 18 19 19 19 19 19 18 18 18 18 18 18 18 18 18 19 19 20 20 20 20 21 22 23 22 21 19 17 15 14 13 11 11 10 10 10 11 13 15 16 16 16 17 18 18 19 19 19 18 19 19 19 20 21 22 22 20 18 17 16 14 12 11
7 7 8 9 9 11 13 14 16 16 16 17 17 16 15 15 16 16 17 17 18 18 19 19 20 19 19 19 18 18 18 18 18 18 18 19 19 19 20 20 20 20 20 20 21 22 22 21 20 19 17 15 14 12 11 10 9 9 9 10 12 14 15 15 16 16 17 17 17 17 16 16 17 17 17 19 21 21 20 18 17 16 15 14 12
7 7 7 8 9 11 13 14 15 16 16 17 16 15 14 15 15 16 16 17 18 19 20 20 20 20 20 19 19 19 18 18 18 18 18 19 19 20 20 20 20 20 20 21 21 21 22 21 21 20 19 17 14 12 11 10 8 9 8 8 9 11 13 14 14 15 15 15 15 16 15 15 16 16 16 18 18 18 19 19 17 16 15 14 13
7 7 7 8 9 11 13 14 15 16 16 16 15 14 14 14 15 15 16 17 18 19 20 21 21 21 20 20 19 19 18 18 19 19 19 19 20 20 20 20 20 20 20 21 21 21 21 21 21 21 20 18 15 12 10 9 7 8 8 7 7 9 10 12 12 13 13 13 14 15 14 14 14 14 15 17 16 16 17 18 18 16 15 14 13
9 7 7 8 9 10 13 14 15 16 16 15 13 13 13 13 14 14 15 17 19 20 21 22 23 23 22 21 20 19 19 19 19 19 19 20 21 21 21 21 21 21 20 21 21 21 21 20 20 20 20 18 17 13 10 8 7 6 6 6 7 7 8 9 10 10 11 11 11 12 12 12 12 13 15 15 15 15 16 16 16 16 15 14 13
10 8 8 8 9 10 12 14 15 16 16 14 12 12 12 12 13 14 15 17 19 20 22 23 24 24 23 21 20 19 19 19 19 20 20 21 22 21 22 22 21 21 21 21 21 21 21 21 20 20 19 18 17 15 12 9 7 5 5 5 6 7 6 6 7 7 7 8 8 8 9 10 10 12 14 14 13 14 15 15 15 16 15 14 14
12 10 8 8 9 9 11 13 14 16 15 12 11 11 11 11 12 13 15 16 18 20 22 23 24 25 24 22 20 19 19 19 20 21 22 22 22 22 22 23 23 23 22 21 21 21 21 21 21 20 20 18 17 16 14 10 8 6 4 3 4 6 5 4 5 5 5 5 6 6 7 8 9 10 11 11 12 13 13 13 14 15 15 14 13
14 12 9 8 8 8 10 12 13 15 14 11 10 9 10 10 11 12 14 16 18 19 21 23 25 25 25 23 21 20 20 21 22 22 23 23 22 22 22 23 23 23 23 22 22 21 20 21 21 20 20 19 17 16 14 12 10 7 5 2 3 5 5 5 6 6 6 6 6 6 6 7 7 7 8 8 9 11 11 12 13 13 14 14 12
14 14 12 9 8 8 9 11 13 14 12 9 8 8 8 9 10 11 13 15 17 19 21 23 25 26 26 24 23 21 21 22 22 23 23 23 23 23 23 23 23 22 22 23 23 22 21 20 21 21 20 20 18 16 14 12 11 10 7 3 2 4 4 5 7 8 7 7 8 7 6 5 5 4 5 6 8 10 10 11 12 12 12 13 11
13 14 13 11 9 8 9 10 12 13 11 8 7 7 7 7 8 10 12 14 16 18 21 23 25 26 26 25 24 22 22 22 23 23 23 23 23 23 23 23 23 22 22 22 22 22 22 22 21 21 20 20 18 17 15 14 11 10 8 5 3 4 4 4 5 7 7 7 7 6 4 4 3 3 4 5 7 9 10 10 10 10 10 10 9
12 13 14 13 11 9 9 9 10 11 9 6 5 6 5 6 7 8 11 13 15 18 20 22 24 25 27 27 26 24 22 22 23 23 24 24 23 23 23 23 23 22 22 22 22 22 22 22 22 21 20 19 18 16 15 14 13 10 8 6 4 4 4 4 5 6 8 8 7 4 4 5 4 2 2 4 5 6 7 9 9 8 8 8 8
12 12 13 13 12 10 9 8 9 10 8 5 4 4 3 4 5 7 9 12 14 17 19 21 23 25 27 28 28 27 24 22 22 23 24 24 23 23 23 23 22 22 22 22 22 22 22 22 22 21 20 19 18 16 15 14 13 12 9 8 7 6 5 6 6 7 8 9 8 6 6 6 5 4 3 2 3 4 6 7 7 7 7 7 7
12 12 12 13 14 12 10 8 9 9 8 5 3 2 2 3 4 6 8 11 13 15 18 20 22 24 26 27 28 28 27 24 22 23 24 24 24 23 22 21 21 21 21 22 22 22 22 22 21 21 21 19 18 16 14 13 13 13 11 11 11 9 9 8 8 8 9 10 10 9 8 6 5 4 3 1 1 2 4 5 5 5 6 5 5
12 12 12 12 13 13 12 10 9 9 8 5 3 2 2 3 4 5 7 10 12 14 17 19 21 23 25 27 28 29 29 26 23 22 23 24 24 23 21 20 20 20 20 21 21 21 21 21 21 21 21 20 18 16 14 13 13 12 11 11 11 10 10 11 10 9 9 10 10 10 9 8 5 4 3 1 0 0 2 4 4 4 5 5 4
13 12 13 12 12 13 13 11 10 9 9 7 5 4 3 4 5 5 7 10 12 14 16 18 21 23 24 26 27 28 29 28 25 22 22 24 24 23 21 20 20 19 19 19 20 20 20 20 21 21 21 20 19 17 15 13 12 11 10 9 9 9 9 10 10 11 11 10 10 10 10 9 7 5 3 1 1 1 2 2 2 3 4 4 3
13 13 14 14 13 13 13 12 11 10 10 9 7 6 6 6 6 6 7 9 11 14 16 18 20 22 24 25 26 27 28 29 27 23 22 23 24 23 21 20 20 19 19 19 19 19 20 20 20 20 21 21 19 17 15 13 11 9 8 9 8 7 7 8 9 11 11 11 9 9 9 8 7 6 3 1 3 3 1 1 1 1 3 4 3
15 15 15 15 14 13 12 13 12 11 10 10 9 8 8 8 8 8 8 9 11 13 15 17 19 21 23 25 26 27 27 28 27 24 22 22 23 23 21 21 20 19 19 19 19 20 20 20 20 20 20 20 19 18 16 14 12 9 7 7 6 5 5 6 7 9 10 11 11 9 7 6 5 4 2 2 4 4 3 1 0 1 2 3 3
17 17 17 17 17 15 13 12 13 12 12 11 11 10 10 10 10 11 10 11 12 13 15 17 18 21 23 24 26 26 27 27 27 25 22 22 23 22 21 21 21 21 20 20 20 20 20 21 20 20 19 18 18 17 16 15 13 10 8 6 4 4 4 4 5 7 9 10 10 8 5 4 4 3 3 3 3 4 4 3 2 0 2 3 4
20 20 20 19 19 18 16 14 13 13 13 13 12 12 12 12 12 12 12 12 13 14 15 16 18 20 22 24 25 26 26 26 26 25 23 22 22 22 21 21 21 21 22 22 22 21 21 22 21 21 20 18 17 16 15 14 13 11 9 6 4 4 3 3 3 6 8 9 9 9 8 6 5 6 6 6 4 2 3 4 4 1 2 3 4
22 23 23 22 21 20 20 17 15 13 13 13 14 14 14 14 13 14 14 14 14 14 15 16 17 19 21 23 24 26 26 26 26 24 23 22 22 21 20 21 21 22 22 23 23 23 23 23 23 22 21 19 18 16 15 14 13 11 9 7 4 3 3 3 3 5 7 8 9 11 11 9 7 7 7 6 5 3 2 1 3 4 2 1 1
23 25 26 26 23 22 21 20 18 15 13 13 14 15 15 15 15 15 15 15 15 15 15 16 17 18 20 22 24 25 25 25 25 24 23 22 21 20 19 20 21 22 22 23 24 24 24 24 23 22 21 19 18 17 16 14 13 12 11 8 6 4 4 3 3 5 6 6 8 10 10 7 5 5 5 6 5 3 2 2 1 3 3 3 2
23 25 27 28 26 24 24 24 21 17 14 13 14 15 16 16 16 16 16 16 16 16 15 16 16 17 19 21 23 24 24 25 24 23 22 22 20 19 19 20 21 21 22 23 24 24 24 24 23 22 21 19 18 17 16 14 13 13 12 11 8 6 5 5 5 6 6 7 8 8 7 6 5 4 4 6 7 4 2 1 1 2 2 2 2
22 24 26 27 27 26 26 26 22 17 14 14 15 15 16 17 18 17 17 17 16 16 16 16 16 17 18 20 22 23 24 24 24 23 22 21 20 18 18 21 21 21 22 24 25 24 24 24 23 22 20 18 17 16 16 15 14 13 12 12 10 8 7 6 6 7 7 8 8 8 8 6 6 5 4 5 7 7 4 1 2 2 3 2 2
22 23 24 25 26 26 26 27 24 20 17 16 16 16 16 18 19 18 18 17 17 17 16 15 15 16 17 19 21 22 23 23 23 22 21 20 19 17 19 20 21 21 23 24 24 24 24 24 23 21 19 18 17 16 16 15 14 13 12 11 10 9 7 6 6 6 7 8 8 8 9 8 7 6 4 4 6 8 5 2 0 2 3 3 3
24 24 24 24 25 25 25 25 26 25 21 19 19 18 17 18 19 19 19 18 18 18 17 16 15 16 17 19 20 21 21 22 22 21 20 19 18 17 18 20 20 21 23 23 23 24 24 24 22 21 19 17 16 16 15 15 14 13 12 11 10 9 7 6 5 5 7 8 8 8 9 9 9 8 6 6 8 8 6 4 3 3 2 1 2
26 26 25 23 23 24 24 24 26 27 24 21 21 20 18 18 19 19 20 20 19 18 18 17 16 16 17 18 19 20 20 20 21 20 19 19 18 17 18 19 20 21 22 22 23 24 23 22 22 21 19 18 16 15 15 14 14 13 12 11 10 9 8 6 5 5 6 7 8 9 9 10 10 9 8 8 9 9 8 8 7 7 7 7 7
28 27 26 25 24 24 24 24 26 28 27 24 23 22 20 19 19 20 20 21 20 19 18 18 17 17 17 18 18 19 19 19 19 19 18 18 17 16 18 19 19 21 21 21 22 22 20 20 22 22 20 18 16 15 14 14 14 13 11 10 9 8 8 7 6 6 7 6 7 8 8 8 8 7 8 6 7 8 10 10 9 9 8 9 10
31 30 29 27 26 25 24 24 26 28 28 27 25 24 22 20 19 20 20 20 19 19 18 18 18 17 17 18 18 18 18 18 18 18 17 17 16 15 17 18 18 19 20 20 20 19 18 19 22 22 21 19 17 15 14 14 13 13 12 10 9 9 8 8 7 7 7 6 6 8 8 6 6 6 8 6 4 7 9 9 8 8 8 9 12
32 32 31 30 28 27 26 25 26 27 28 29 29 25 22 20 20 20 19 19 18 18 19 19 18 17 17 17 17 17 16 16 17 17 17 16 15 15 16 17 17 19 20 19 19 19 18 19 21 22 21 19 17 15 14 13 13 13 12 11 11 10 9 9 8 8 7 6 5 6 6 6 5 6 7 7 5 6 8 8 6 5 6 8 10
32 33 33 32 30 29 29 27 26 26 28 30 31 28 23 21 20 20 19 19 19 19 20 19 17 16 17 16 16 16 15 15 15 16 15 15 14 14 15 16 16 17 19 18 18 18 18 18 20 21 21 19 17 14 13 12 12 12 11 11 11 10 10 10 9 8 7 5 3 4 5 4 4 5 7 8 7 6 5 5 5 5 5 6 6
33 33 33 34 33 31 30 29 27 27 28 29 32 32 27 22 21 20 19 20 20 20 19 18 17 17 17 16 15 15 14 13 14 14 14 14 13 13 14 15 14 16 18 18 17 18 18 18 19 20 20 19 17 14 12 12 11 11 11 11 11 10 11 11 10 9 7 4 3 3 3 3 3 4 6 9 9 7 5 4 4 6 6 5 4
35 34 34 35 35 33 32 30 28 28 28 30 32 34 31 25 21 20 19 19 20 20 19 18 18 17 16 15 14 14 13 12 13 13 13 13 12 12 13 14 14 15 17 17 17 17 18 18 18 19 20 19 17 13 11 11 11 11 12 11 11 11 11 11 11 10 7 5 4 3 2 2 2 3 4 8 9 7 6 5 4 6 6 5 4
36 35 35 35 36 35 33 32 30 29 30 31 33 34 33 29 24 21 19 19 19 20 18 18 18 17 16 14 13 13 12 12 12 12 12 12 12 11 12 12 13 14 15 16 17 17 18 17 17 18 19 19 17 13 11 11 10 11 12 12 11 12 12 12 11 10 8 6 5 3 2 2 2 3 3 6 7 7 6 6 6 7 7 6 5
36 35 35 36 37 36 34 33 32 31 32 33 34 35 34 31 26 23 20 19 19 19 19 18 18 17 16 14 13 12 12 11 11 11 11 11 11 11 11 11 12 12 14 16 17 17 17 17 17 17 18 18 16 13 11 10 10 10 11 12 12 12 12 12 11 10 8 7 6 4 2 1 1 2 3 5 6 6 5 6 7 7 7 6 5
36 35 35 36 37 37 35 34 33 32 32 34 35 35 34 32 28 24 21 20 19 19 19 19 18 18 16 14 13 12 11 10 10 10 10 10 10 10 10 10 11 11 13 15 17 16 15 16 16 16 17 17 15 13 11 10 9 10 11 12 12 12 12 12 11 10 9 8 6 4 3 1 1 1 2 4 5 5 5 4 5 6 6 5 5
35 35 35 36 37 37 35 34 34 34 33 33 35 36 35 35 32 26 22 21 21 20 19 19 19 18 16 14 12 12 11 9 9 10 9 10 10 10 10 10 10 11 12 15 15 15 14 15 16 15 16 16 15 12 11 10 9 9 10 11 12 12 12 12 12 11 10 9 7 6 4 3 1 1 1 3 4 4 4 4 5 5 4 4 4
34 35 35 35 35 36 35 33 34 35 34 34 36 36 35 37 35 28 22 22 22 20 19 19 19 18 16 14 12 12 11 9 9 10 10 9 10 10 10 9 10 11 12 14 14 14 13 14 15 14 15 15 14 12 11 10 9 8 9 10 11 12 12 12 12 11 10 10 9 7 5 4 3 2 2 3 4 2 3 4 6 5 4 5 5
32 34 36 35 33 34 35 33 33 35 36 35 36 35 35 37 37 30 24 23 23 20 18 19 19 18 16 14 13 12 12 10 9 11 10 10 10 10 9 9 9 10 11 12 13 13 13 13 13 13 14 14 14 12 10 10 8 8 8 9 10 12 12 11 11 11 11 10 9 8 6 5 4 4 4 4 4 2 1 4 6 5 5 7 7
30 34 36 34 32 33 34 33 33 35 36 36 36 35 34 36 38 34 28 25 24 20 17 19 20 18 17 16 14 13 12 11 11 12 11 10 10 10 9 8 8 9 10 11 12 12 13 13 12 12 12 13 13 12 10 9 8 8 8 8 9 11 11 11 10 11 11 10 10 9 8 7 6 5 4 5 5 3 2 4 6 6 6 7 7
30 34 37 36 32 32 33 33 34 36 36 36 37 36 34 36 39 38 32 28 25 20 17 18 20 19 17 15 14 13 12 13 13 13 12 11 10 10 9 8 8 7 9 10 11 12 12 12 11 11 11 12 13 12 11 9 8 8 8 8 9 10 10 11 11 10 11 11 10 10 9 9 8 6 3 3 5 5 4 4 6 5 5 6 6
30 34 37 36 34 33 33 33 34 35 36 37 36 35 35 36 39 39 35 31 26 20 18 19 20 19 17 16 15 14 14 15 14 13 13 12 11 10 9 8 7 6 7 8 10 11 12 12 11 10 10 11 12 12 11 10 8 8 7 8 8 8 9 10 11 11 11 11 11 10 9 9 8 7 5 3 2 3 4 5 7 6 5 6 7
31 34 36 36 36 36 35 33 33 34 36 37 36 35 34 35 36 37 35 32 26 20 19 20 21 19 18 17 17 17 16 16 15 14 13 13 12 11 10 8 7 5 6 8 9 11 11 11 11 10 9 10 11 11 11 10 9 8 7 7 7 7 8 9 10 10 11 11 11 10 9 9 8 7 6 6 5 4 4 5 6 6 7 7 7
32 34 35 36 36 36 36 34 33 33 35 36 36 34 34 34 34 35 37 34 28 21 20 22 22 20 19 20 19 18 17 16 15 14 14 13 13 11 10 9 7 5 5 7 9 10 10 10 11 10 9 9 10 11 10 10 9 9 8 7 6 6 7 8 9 10 10 10 10 10 10 9 8 7 7 7 6 5 6 6 6 6 7 8 8
33 34 35 37 38 38 38 38 36 34 34 35 35 35 34 33 31 34 37 36 30 24 22 22 22 20 20 22 21 19 18 17 16 14 14 14 13 12 10 9 8 5 5 7 9 10 9 9 10 10 9 8 8 9 10 10 10 9 8 7 6 5 5 6 8 9 9 10 10 10 10 9 8 7 7 7 7 6 6 7 8 7 7 7 8
33 34 35 38 40 40 40 41 39 34 33 35 36 35 33 32 31 33 35 33 29 26 24 23 23 22 22 23 22 20 18 17 16 15 15 15 14 12 11 10 8 6 5 6 8 9 8 8 9 10 9 8 7 8 9 10 10 9 8 7 6 4 4 5 6 7 9 10 10 10 10 9 8 7 7 7 7 7 6 6 7 8 7 7 8
32 34 35 38 41 41 42 43 40 35 32 34 36 35 32 31 32 33 32 30 28 29 28 26 25 24 24 24 22 20 19 18 17 16 16 16 15 13 11 10 8 6 5 6 7 8 7 7 9 10 10 8 7 7 8 9 9 9 8 7 6 5 3 3 4 6 7 9 10 10 10 9 9 8 8 7 7 7 7 6 6 6 7 8 8
34 35 36 38 41 43 43 44 42 37 32 33 35 35 32 31 32 31 30 28 29 30 30 28 26 25 25 25 23 21 21 20 17 16 16 16 15 13 12 10 8 6 5 6 7 7 6 6 8 9 9 9 7 7 7 8 8 9 8 7 6 5 4 2 3 4 6 7 9 9 9 9 9 8 8 8 7 7 7 6 6 6 6 7 7
38 37 38 39 42 44 44 45 44 39 33 31 34 36 34 32 30 29 28 28 30 30 30 29 28 27 27 26 24 23 22 20 17 17 17 17 16 14 13 11 9 6 5 6 7 7 6 6 7 8 9 9 8 7 7 7 7 8 8 7 6 5 4 3 3 3 4 6 7 8 8 9 9 9 8 8 8 8 7 7 6 6 6 5 6
42 40 40 41 43 44 45 45 45 41 33 31 34 37 34 32 30 27 27 28 31 31 31 30 29 29 28 27 25 25 24 20 18 17 17 16 16 15 13 11 9 7 6 6 7 6 5 5 6 6 8 9 9 8 7 6 7 8 8 6 5 5 4 4 3 3 4 5 6 6 7 8 8 9 9 8 8 8 8 7 6 6 6 6 6
45 43 42 42 42 44 45 46 47 43 36 33 35 36 35 33 30 28 28 30 32 33 33 32 30 30 30 29 28 28 26 21 19 18 16 15 16 16 14 11 9 8 6 6 7 6 4 4 5 5 6 9 9 7 6 6 7 7 7 6 5 4 4 4 4 3 4 5 6 6 6 6 7 8 9 9 8 8 8 8 7 7 6 6 6
45 46 44 44 42 42 44 46 46 43 38 35 34 35 36 34 30 28 29 32 34 34 34 33 32 31 31 31 31 30 27 23 21 19 16 16 17 16 14 12 10 8 7 7 7 6 4 3 4 4 5 8 8 7 6 6 7 7 7 6 5 4 4 4 4 4 5 6 6 5 5 6 6 7 8 8 8 8 8 8 8 8 7 6 6
Wind_Direction
9 5 3 3 3 3 1 4 6 4 3 5 7 8 11 12 11 9 10 12 13 13 13 11 9 7 5 2 2 1 1 0 359 359 360 360 359 359 0 0 360 1 3 4 5 8 12 15 15 17 21 21 19 22 30 34 39 46 43 39 41 37 30 31 34 35 33 32 35 36 35 36 36 38 43 43 40 37 37 42 49 53 58 65 70
10 8 6 4 3 2 2 4 4 3 3 6 9 11 14 15 13 12 13 16 17 16 15 13 9 7 4 1 1 1 0 359 359 1 3 4 4 4 3 3 2 1 4 6 5 5 8 11 13 15 17 21 21 18 25 36 36 36 38 40 41 35 28 29 29 31 32 29 30 34 33 34 36 37 40 40 39 38 36 38 43 47 48 49 54
9 10 9 6 4 2 2 3 2 2 3 6 11 15 18 18 15 15 17 19 19 18 16 14 10 7 3 0 1 1 0 360 0 3 5 6 8 7 7 6 5 4 5 7 6 6 7 7 9 13 13 16 21 18 19 31 32 25 30 38 41 37 31 29 28 28 31 28 28 32 33 32 33 34 36 38 42 45 41 38 39 41 43 42 42
8 11 10 6 6 3 2 2 0 1 4 7 14 20 21 21 20 20 23 23 22 20 18 16 12 8 4 2 1 1 1 2 3 5 7 9 11 10 9 8 8 8 8 7 7 6 7 7 7 9 11 12 16 20 21 25 26 25 30 31 31 36 36 32 29 29 29 27 25 27 29 31 32 33 34 37 43 48 44 39 39 40 38 37 36
8 10 9 7 7 4 3 1 360 1 3 8 18 24 24 24 25 26 27 26 24 22 20 18 15 12 9 7 6 5 5 5 6 8 11 13 15 13 11 10 10 10 10 8 8 6 5 7 7 6 9 10 10 16 23 22 23 27 30 26 20 27 34 30 22 22 27 27 25 25 27 28 29 29 32 34 36 40 42 37 38 42 41 37 36
7 5 6 7 5 3 3 1 360 0 2 10 22 28 28 28 30 30 29 27 25 23 22 20 18 16 15 13 12 10 9 9 10 13 15 16 17 15 13 12 11 11 12 11 10 8 5 6 7 5 7 9 8 12 17 17 20 24 24 24 20 17 22 24 14 10 18 24 21 19 20 23 25 26 30 31 26 30 38 37 37 42 42 39 40
6 1 1 5 3 2 3 1 1 1 2 13 27 31 31 32 32 31 30 28 25 23 23 22 21 20 19 18 17 15 14 14 14 15 17 18 18 17 15 13 12 11 11 12 13 11 7 6 7 6 5 8 9 9 11 10 8 14 18 10 7 9 5 357 354 353 356 5 7 7 11 14 20 28 31 29 28 33 38 39 39 42 42 40 40
5 359 357 360 359 0 2 2 2 1 3 16 30 33 34 34 32 30 29 27 25 23 23 23 22 22 21 20 19 17 15 15 14 14 16 17 17 18 17 15 13 12 10 11 14 15 12 8 8 7 4 6 10 9 10 9 0 359 11 6 348 2 359 333 330 338 339 340 344 352 4 7 12 26 27 22 32 42 41 39 40 40 41 42 39
3 0 356 354 354 356 360 2 2 1 4 17 30 34 36 34 31 28 27 25 24 23 22 22 23 22 21 20 19 17 15 13 13 12 14 15 14 16 18 16 15 14 12 12 12 14 15 12 10 10 6 5 9 9 8 12 5 352 352 357 329 335 345 333 331 339 342 330 321 326 344 353 352 11 24 21 32 40 39 40 42 37 40 46 42
356 359 357 351 349 350 354 1 3 1 4 16 30 34 34 33 29 24 24 23 22 22 22 22 22 21 21 20 18 17 16 13 12 12 12 13 11 12 16 16 14 14 13 13 13 12 14 14 13 11 9 6 8 8 6 10 10 354 344 350 344 318 317 325 333 343 353 344 321 315 340 354 331 336 21 29 31 32 33 40 45 40 38 44 44
346 353 357 351 346 345 347 356 360 359 2 12 27 33 30 29 25 18 19 20 19 20 20 20 20 19 19 19 18 16 15 13 12 12 11 11 9 10 14 14 11 12 13 13 14 13 13 15 15 13 12 10 9 9 7 6 7 1 347 346 355 335 314 319 330 339 351 357 351 345 6 16 9 15 58 50 33 29 34 42 48 44 34 38 48
338 343 350 350 347 341 340 348 353 355 358 3 18 29 22 17 16 9 10 13 14 16 17 17 18 18 17 17 17 15 13 12 12 11 11 10 7 7 11 11 8 9 11 11 12 13 13 14 14 13 13 13 11 11 9 4 6 11 3 357 4 358 340 334 336 339 346 360 9 11 14 21 32 53 101 106 49 32 38 45 50 45 29 33 56
334 336 340 346 346 340 335 338 343 347 350 348 355 9 357 350 357 358 358 2 6 8 10 12 13 15 16 15 15 15 12 10 10 10 10 9 6 5 6 7 6 6 8 9 10 11 12 12 13 13 13 13 12 12 9 4 12 22 18 9 6 1 353 346 341 342 347 355 2 4 6 14 32 59 94 134 49 27 39 43 45 39 28 32 63
332 333 333 337 340 339 335 329 331 338 339 332 319 312 306 307 324 341 345 348 355 359 2 6 7 10 13 13 13 14 12 10 8 8 9 8 5 4 2 3 6 6 7 8 8 9 9 11 11 10 12 13 12 12 9 5 14 25 23 12 3 358 358 355 354 355 351 350 355 357 358 1 15 52 79 83 255 112 69 55 37 34 46 53 64
328 331 330 329 330 334 334 327 322 326 329 323 304 286 280 280 294 316 329 335 343 349 353 358 1 5 8 10 11 12 11 10 7 5 7 6 4 3 1 2 6 8 8 7 7 7 6 8 9 8 8 10 11 11 8 6 12 19 21 15 1 355 358 358 3 8 358 349 355 359 357 359 6 21 39 58 78 85 80 68 35 31 65 75 70
325 327 327 324 321 322 327 326 318 315 318 316 300 282 276 272 279 294 310 322 331 338 345 351 355 359 3 6 8 9 9 9 7 3 3 5 4 2 1 3 7 9 9 7 6 5 5 5 7 6 5 5 7 8 7 5 6 7 14 13 358 350 359 360 6 12 358 345 350 357 355 358 8 13 12 103 119 105 70 46 30 54 89 88 82
321 321 321 322 318 309 312 320 318 311 308 308 300 285 275 271 274 282 295 309 320 328 336 343 348 353 357 1 3 5 7 8 6 3 1 3 4 2 0 2 6 9 10 10 8 5 5 7 7 7 5 3 3 5 4 4 3 356 359 3 350 345 3 11 14 10 355 345 349 353 353 356 11 18 18 119 145 158 171 166 26 90 109 92 83
316 315 315 318 316 305 301 309 315 312 305 300 297 289 278 272 273 278 286 296 308 318 327 335 342 347 352 356 359 1 4 6 5 3 1 1 3 2 359 1 5 6 7 10 10 8 7 8 8 7 6 4 3 3 3 3 2 354 348 348 348 357 18 36 26 1 350 351 351 352 357 358 3 36 65 78 115 172 186 178 182 147 78 74 82
311 310 310 313 315 310 301 297 301 308 306 297 293 290 283 275 272 275 282 289 298 309 318 327 336 342 347 352 355 357 360 3 4 2 360 1 2 1 359 0 3 4 4 5 8 9 8 8 7 6 5 4 4 5 4 4 3 357 349 345 358 19 26 45 28 346 346 354 349 356 23 38 42 53 60 63 72 114 168 181 195 204 67 70 74
307 306 306 308 311 309 303 296 292 298 303 297 291 289 286 280 276 275 279 286 292 301 311 319 329 337 343 347 351 354 356 359 1 1 358 0 2 0 358 359 1 2 3 5 8 9 9 7 5 4 3 3 4 5 6 7 6 1 355 354 7 24 20 27 12 340 344 344 333 351 24 51 66 58 52 52 59 69 85 158 218 237 249 262 6
303 303 303 305 307 304 300 295 287 287 296 297 292 289 286 282 280 278 279 283 289 296 304 313 323 331 338 344 348 351 353 355 358 359 358 359 1 1 358 357 358 359 3 8 11 9 8 6 4 2 2 2 2 4 6 8 8 5 4 5 11 17 12 13 3 344 341 329 322 347 20 53 82 73 55 48 43 44 71 88 238 249 247 255 282
304 302 302 303 304 303 297 290 282 281 288 295 295 292 286 282 282 281 280 283 286 292 299 307 317 326 333 340 345 347 350 353 355 356 357 358 360 0 358 355 356 360 5 10 12 9 7 6 3 2 3 2 2 4 7 9 9 8 8 9 12 13 11 12 7 358 350 341 343 6 34 67 90 85 68 54 37 22 53 118 224 240 240 266 283
307 305 304 303 304 304 299 294 290 287 286 287 293 295 288 281 280 280 281 282 284 289 295 301 312 321 328 335 341 343 346 349 352 354 356 357 358 358 357 355 356 1 9 12 11 9 8 7 5 4 4 3 4 7 10 11 10 10 10 9 10 11 9 10 8 5 3 358 6 29 48 66 82 77 70 66 41 22 29 130 222 239 236 268 304
309 308 308 306 305 305 303 300 297 294 285 280 286 292 289 283 279 278 279 281 283 286 291 297 306 316 324 330 336 340 343 346 349 351 353 355 356 356 357 356 356 4 12 13 10 9 10 9 7 8 7 7 8 11 13 14 12 13 13 10 9 8 7 8 8 8 13 12 15 30 39 49 71 78 73 68 41 24 36 99 250 286 256 251 273
305 306 307 308 306 305 303 299 294 291 285 277 278 283 285 284 281 278 276 278 281 284 288 294 302 310 319 325 331 337 340 343 347 349 351 353 354 355 357 355 358 8 14 11 10 13 13 9 10 13 13 12 13 14 16 16 14 14 15 13 11 11 10 13 15 18 25 23 19 26 33 41 60 73 72 57 38 31 51 82 64 37 51 40 334
299 299 301 304 304 303 303 298 291 290 289 280 275 277 281 282 282 279 276 276 278 282 286 291 298 305 313 320 327 334 337 341 344 346 348 351 352 355 356 354 0 11 13 10 13 16 12 9 13 16 14 14 16 17 18 18 17 16 15 14 14 15 16 20 27 32 33 28 25 30 36 41 51 67 75 59 41 46 64 71 70 75 76 61 39
293 293 294 296 298 299 302 299 291 289 289 283 276 273 275 279 282 280 276 275 276 281 286 289 294 301 309 315 324 330 333 338 342 343 347 351 350 352 354 354 2 12 11 11 17 17 10 11 16 16 13 14 17 18 20 22 22 20 18 17 18 19 19 20 24 31 33 32 31 34 40 46 54 75 92 76 50 62 73 70 69 75 75 64 48
287 288 288 290 291 293 296 297 293 291 289 286 280 273 270 276 282 281 279 279 279 280 282 284 288 297 305 311 319 326 329 335 339 341 345 349 347 350 354 355 2 10 10 12 17 13 8 14 19 15 12 13 15 18 21 24 26 26 25 26 26 25 22 18 19 25 28 31 35 34 36 47 62 88 110 107 75 75 80 75 74 74 69 64 56
282 282 283 284 285 286 289 292 294 294 289 285 284 280 271 272 280 282 280 278 276 273 275 279 285 294 300 306 315 322 325 330 336 339 343 345 345 350 353 354 1 8 8 11 14 9 8 15 18 14 11 10 11 16 20 23 28 30 31 34 33 29 24 18 16 23 26 27 36 38 36 43 58 86 115 122 100 79 76 73 74 77 70 66 61
279 278 279 279 279 281 283 285 289 293 289 284 285 285 275 267 274 281 279 274 270 268 271 277 282 287 293 301 309 316 320 325 332 336 340 342 344 349 352 354 360 4 6 9 10 6 8 15 15 12 11 9 9 14 19 23 30 34 35 36 34 29 23 16 14 23 28 22 24 35 39 48 61 83 112 125 117 99 93 82 76 84 84 76 68
276 276 276 277 277 276 278 279 282 287 289 285 283 282 277 267 267 275 277 273 269 268 271 275 277 280 287 296 304 309 313 320 327 332 336 338 341 346 351 353 357 2 5 8 7 5 8 14 13 9 9 8 8 12 19 24 32 36 37 37 34 27 22 17 16 24 31 22 12 20 36 58 68 78 110 129 132 129 131 125 97 95 96 89 79
275 274 274 274 275 274 274 276 277 281 285 286 282 280 278 271 265 269 274 272 269 268 269 270 272 276 282 289 297 302 306 312 321 328 331 332 335 343 348 351 356 2 6 6 5 5 8 12 12 8 7 7 8 11 20 28 34 36 37 38 35 29 24 19 21 27 29 25 23 28 43 68 62 58 101 134 148 148 137 127 106 94 94 94 89
275 273 272 272 272 272 272 274 274 274 277 280 279 278 278 274 266 264 268 270 267 266 265 265 267 272 276 282 290 294 297 303 314 322 324 325 331 338 344 349 355 2 5 4 3 5 8 11 12 8 6 6 8 11 19 30 35 37 38 38 35 30 25 23 26 32 29 24 26 30 35 60 50 42 77 126 153 161 150 136 122 103 95 93 83
274 273 273 272 271 270 270 271 272 272 273 276 277 276 277 277 268 259 261 266 265 262 261 261 263 267 270 275 282 286 287 295 308 315 316 319 326 332 339 347 353 357 1 3 3 4 7 10 11 9 6 6 8 12 19 30 36 37 39 38 35 31 28 25 29 35 34 27 26 24 21 51 68 52 75 108 136 160 171 160 143 130 122 110 91
275 273 274 275 273 270 270 270 272 272 271 274 276 274 273 272 265 255 255 261 260 257 256 257 257 261 264 267 273 277 277 286 301 309 308 311 320 327 334 342 348 351 357 1 1 2 7 9 10 10 8 7 9 13 20 29 37 38 39 39 36 33 30 27 30 36 37 35 31 23 14 26 155 136 91 104 127 158 178 163 141 140 146 141 128
274 273 274 275 275 273 271 269 270 272 271 272 275 275 272 269 262 254 251 256 256 252 252 253 254 257 260 261 265 268 267 275 292 300 299 302 312 321 328 335 343 351 359 1 359 0 6 8 10 12 11 9 11 16 21 29 38 40 40 40 38 36 33 30 31 36 39 39 38 29 15 19 67 151 133 107 124 164 181 149 129 137 148 151 145
272 273 273 274 275 275 273 269 267 269 270 270 272 274 275 271 265 255 248 252 255 251 248 250 251 253 255 255 256 258 257 261 278 288 290 295 305 313 320 328 340 353 1 1 358 360 4 7 11 16 15 12 13 17 23 30 39 42 42 42 39 37 35 32 33 38 40 40 42 40 25 25 62 122 159 130 121 164 180 128 120 130 131 125 118
271 272 272 273 274 274 274 271 266 265 267 268 270 273 276 273 267 259 248 247 251 248 244 247 248 248 249 248 247 248 247 249 264 278 281 285 295 304 312 322 335 351 2 1 359 0 3 7 13 19 18 15 15 17 22 31 40 44 45 45 41 39 37 34 35 41 44 42 43 44 37 37 65 103 146 145 135 164 166 104 108 120 124 118 114
270 271 271 271 273 273 274 272 267 264 263 265 267 271 274 273 269 262 249 244 247 246 240 241 243 243 243 243 242 243 243 244 255 270 274 276 285 293 302 313 327 348 3 4 359 0 3 7 15 20 20 17 16 17 22 30 39 47 50 49 45 42 39 38 39 43 47 45 43 44 42 43 58 87 131 149 149 161 151 97 101 111 117 119 120
264 266 266 267 269 271 272 272 269 265 263 262 263 266 270 272 272 265 251 240 242 243 236 235 240 240 239 239 239 239 239 240 248 262 268 269 275 284 291 301 318 344 4 3 358 359 4 8 13 19 21 17 14 16 22 27 33 46 53 52 49 45 41 40 42 46 50 49 45 43 44 47 55 70 104 152 166 171 160 123 115 117 120 125 126
259 262 264 265 267 269 270 271 269 267 264 261 261 262 266 271 275 270 255 240 235 233 228 229 235 236 233 233 233 232 233 237 244 255 262 262 264 274 282 290 306 337 1 0 353 354 0 7 11 16 19 15 11 13 20 25 29 40 51 53 51 48 44 42 43 46 50 51 48 46 47 51 57 65 75 92 140 175 171 145 133 132 131 130 129
257 260 263 265 266 267 270 271 269 266 263 261 259 259 262 267 272 272 262 247 235 227 222 225 230 230 226 227 230 229 231 236 242 250 255 256 256 263 272 279 292 322 352 354 347 347 354 3 8 12 15 13 8 8 17 25 28 33 45 53 53 50 48 47 46 46 49 51 50 49 51 55 59 63 68 74 92 133 154 142 133 134 134 132 129
253 256 261 264 265 266 268 269 267 263 261 260 258 257 259 263 268 271 265 251 235 222 217 221 225 225 223 224 227 228 230 235 241 244 247 249 251 254 261 269 279 303 339 344 340 341 348 358 5 9 12 11 6 4 13 24 29 31 38 48 52 51 50 51 51 51 53 54 52 51 53 57 60 65 69 75 89 114 127 123 123 129 133 132 129
247 250 255 260 263 264 266 267 267 263 261 259 257 254 255 259 264 268 265 254 236 220 214 216 218 219 220 224 227 228 229 233 237 239 240 243 245 247 252 259 268 287 321 333 332 334 342 353 1 7 10 9 3 1 8 19 27 31 35 42 48 53 54 55 56 57 58 59 57 55 54 57 60 65 71 77 85 104 121 130 136 138 137 135 131
243 246 251 255 259 261 264 266 266 264 259 256 255 253 254 257 260 263 264 258 243 225 216 213 212 213 217 223 227 228 229 231 233 234 235 237 239 241 244 249 258 276 307 322 324 327 336 349 357 4 10 11 3 357 3 13 22 28 32 37 44 52 56 59 62 63 62 63 62 59 58 60 61 65 73 80 86 94 110 131 143 146 145 142 136
242 241 247 253 256 259 262 264 264 262 258 254 253 251 252 254 257 260 264 259 243 228 220 215 209 209 214 221 224 224 224 226 228 230 231 232 233 234 237 241 250 268 294 311 316 320 330 345 355 1 10 14 6 355 358 8 16 23 28 33 41 50 58 67 72 71 69 68 65 61 60 62 64 66 74 82 90 96 102 112 126 139 148 147 142
247 239 241 248 253 256 259 262 263 262 258 254 251 250 249 249 253 261 264 254 237 227 223 217 207 204 211 219 221 219 219 221 224 226 228 228 228 229 231 234 243 261 283 299 307 313 324 342 353 360 9 15 10 358 354 1 10 18 23 28 37 47 59 80 88 83 79 76 71 66 63 64 65 67 72 79 87 95 100 104 110 122 139 149 147
255 243 237 241 248 251 254 258 261 261 258 254 250 247 246 246 249 257 258 246 232 226 223 215 204 201 210 217 218 215 216 216 217 220 223 224 223 225 227 228 236 252 273 287 298 307 320 337 348 357 8 14 10 357 351 357 7 15 20 27 36 45 57 81 98 99 95 86 78 71 67 66 66 67 70 75 82 90 96 102 108 113 120 132 138
257 247 235 235 243 249 251 253 257 258 257 254 249 246 244 243 246 250 247 236 227 224 222 213 202 201 209 215 215 213 212 210 209 214 219 219 218 221 224 223 230 246 263 277 289 300 315 332 342 351 5 11 7 356 351 358 9 16 21 29 38 48 60 75 93 115 116 100 88 80 74 71 70 69 69 72 77 85 92 97 103 109 112 115 121
256 250 237 230 236 245 249 250 253 256 256 252 248 244 241 240 242 245 239 228 221 220 219 212 203 202 208 214 215 211 207 205 207 213 216 214 214 219 221 220 226 242 257 268 281 293 309 328 333 341 360 7 5 359 358 4 12 18 26 34 44 54 64 76 93 118 126 115 102 93 87 82 78 76 75 73 74 79 87 91 95 101 108 113 117
253 250 241 229 229 238 246 248 248 251 252 250 246 243 240 238 239 240 233 222 218 219 217 211 204 203 208 214 215 210 204 202 207 212 212 210 212 216 218 219 225 239 251 261 274 286 301 322 323 328 355 7 7 5 6 9 13 21 31 41 53 64 73 84 94 110 125 124 116 109 104 98 91 87 85 83 79 80 85 90 93 96 100 106 111